TimeEDT,TemperatureF,Dew PointF,Humidity,Sea Level PressureIn,VisibilityMPH,Wind Direction,Wind SpeedMPH,Gust SpeedMPH,PrecipitationIn,Events,Conditions,WindDirDegrees,DateUTC
12:41 AM,66.2,64.4,94,30.22,10.0,SW,5.8,-,N/A,,Scattered Clouds,220,2013-06-23 04:41:00
12:53 AM,66.9,64.9,93,30.22,10.0,SW,6.9,-,N/A,,Partly Cloudy,220,2013-06-23 04:53:00
1:53 AM,66.0,64.0,93,30.21,10.0,SSW,3.5,-,N/A,,Clear,210,2013-06-23 05:53:00
2:53 AM,66.0,62.1,87,30.20,10.0,SW,3.5,-,N/A,,Clear,220,2013-06-23 06:53:00
3:53 AM,64.9,61.0,87,30.18,10.0,SSW,3.5,-,N/A,,Clear,210,2013-06-23 07:53:00
4:53 AM,64.0,61.0,90,30.19,10.0,Calm,Calm,-,N/A,,Clear,0,2013-06-23 08:53:00
5:53 AM,62.1,59.0,90,30.19,10.0,Calm,Calm,-,N/A,,Clear,0,2013-06-23 09:53:00
6:53 AM,69.1,64.0,84,30.21,10.0,SW,3.5,-,N/A,,Clear,220,2013-06-23 10:53:00
7:53 AM,72.0,63.0,73,30.22,10.0,SW,6.9,-,N/A,,Clear,220,2013-06-23 11:53:00
8:53 AM,73.9,63.0,68,30.22,10.0,WSW,9.2,-,N/A,,Clear,240,2013-06-23 12:53:00
9:53 AM,75.9,64.0,67,30.21,10.0,SW,8.1,-,N/A,,Clear,220,2013-06-23 13:53:00
10:53 AM,77.0,64.9,66,30.20,10.0,SW,9.2,-,N/A,,Clear,220,2013-06-23 14:53:00
11:53 AM,78.1,66.0,66,30.19,10.0,SW,11.5,18.4,N/A,,Clear,230,2013-06-23 15:53:00
12:53 PM,77.0,64.9,66,30.19,10.0,SW,11.5,18.4,N/A,,Clear,230,2013-06-23 16:53:00
1:53 PM,79.0,66.9,66,30.17,10.0,SSW,10.4,20.7,N/A,,Clear,210,2013-06-23 17:53:00
2:53 PM,79.0,66.9,66,30.16,10.0,SW,9.2,23.0,N/A,,Clear,220,2013-06-23 18:53:00
3:53 PM,77.0,68.0,74,30.15,10.0,SSW,13.8,19.6,N/A,,Clear,210,2013-06-23 19:53:00
4:37 PM,75.2,68.0,78,30.14,10.0,SW,12.7,23.0,N/A,,Partly Cloudy,220,2013-06-23 20:37:00
4:53 PM,75.0,68.0,79,30.14,10.0,SSW,13.8,23.0,N/A,,Partly Cloudy,210,2013-06-23 20:53:00
5:53 PM,75.0,69.1,82,30.12,10.0,SW,9.2,21.9,N/A,,Scattered Clouds,220,2013-06-23 21:53:00
6:00 PM,75.2,69.8,83,30.12,10.0,SSW,12.7,21.9,N/A,,Mostly Cloudy,210,2013-06-23 22:00:00
6:53 PM,73.0,69.1,87,30.12,10.0,SSW,11.5,19.6,N/A,,Mostly Cloudy,200,2013-06-23 22:53:00
7:34 PM,71.6,69.8,94,30.12,10.0,SSW,13.8,20.7,N/A,,Scattered Clouds,200,2013-06-23 23:34:00
7:53 PM,72.0,69.1,91,30.12,10.0,SSW,10.4,17.3,N/A,,Mostly Cloudy,210,2013-06-23 23:53:00
8:53 PM,71.1,69.1,93,30.11,10.0,SSW,15.0,20.7,N/A,,Overcast,200,2013-06-24 00:53:00
9:53 PM,71.1,68.0,90,30.13,10.0,SSW,8.1,18.4,N/A,,Partly Cloudy,200,2013-06-24 01:53:00
10:41 PM,71.6,68.0,88,30.12,10.0,SSW,6.9,-,N/A,,Mostly Cloudy,210,2013-06-24 02:41:00
10:53 PM,71.1,68.0,90,30.12,10.0,SSW,8.1,-,N/A,,Mostly Cloudy,210,2013-06-24 02:53:00
11:53 PM,71.1,68.0,90,30.11,10.0,SSW,8.1,-,N/A,,Overcast,210,2013-06-24 03:53:00